星链-30210 (STARLINK-30210 )

导读

STARLINK-30210是美国太空探索技术公司Starlink星链互联网卫星星座的一员,于2023年7月10日发射。星链项目旨在打造全球卫星互联网,该卫星承担低轨道通信传输任务,为偏远地区、海上、航空等场景提供互联网接入服务,是星链星座组网扩张过程中的一颗量产卫星,延续了星链卫星批量发射组网的部署节奏。

基本信息
目录编号:
57292
目录名称:
STARLINK-30210
国际标识:
2023-096C
轨道中心:
EARTH
卫星名称:
星链-30210
卫星全名:
星链-30210 (STARLINK-30210 )
卫星状态:
已陨落 最后检测时间 2026-03-11
发射日期:
2023-07-10 UTC
国别 :
美国 (US)
星等 :
--
该卫星已列入 空间交会检测服务 Space Conjunction Data Service (SCDS) ,当前飞行风险评估等级: 无高风险
轨道信息
数据来源 国际轨道数据
星历时间: 2026-03-07T06:41:00+0800
轨道信息已过期188天
半长轴: 6625.758km
偏心率: 0.0021831
轨道倾角: 42.961°
近地点辐角 23.156°
升交点赤经 152.554°
平近点角 308.282°
近地点: 233.156km
远地点: 262.086km
周期: 89.457分钟
每日圈数: 16.097169
详细信息
固有亮度:
5
最大亮度:
0.3
卫星平台:
Starlink v2.0 mini
覆盖范围:
全球
运营商:
太空探索技术公司
运营商所在国:
美国
制造商(研发单位):
太空探索技术公司
制造商所在国:
美国
使用方式:
暂无
卫星简介
星链(Starlink)计划是由太空探索技术公司(SpaceX)提出的一个巨型低轨卫星互联网星座项目,计划在2019年至2024年间在太空搭建由约1.2万颗卫星组成的“星链”网络,其中1584颗将部署在地球上空550千米处的近地轨道,并从2020年开始工作。该卫星仍在工作。
与全量物体交会距离演化趋势
与全量物体交会风险概率演化趋势